| time (UTC) | temp F | wind direction | speed MPH | gust MPH | rain 1hr in | rain 24hr in | rain mn in | humidity % | barometer mb |
| 20260504224509 | 62 | 70 | 5.0 | 0.0 | 0.00 | 0.00 | 0.00 | 68 | 1016.0 |
| 20260504223508 | 62 | 70 | 5.0 | 0.0 | 0.00 | 0.00 | 0.00 | 68 | 1016.0 |
| 20260504222507 | 60 | 122 | 3.0 | 5.0 | 0.00 | 0.00 | 0.00 | 71 | 1014.0 |
| 20260504221507 | 60 | 122 | 3.0 | 5.0 | 0.00 | 0.00 | 0.00 | 71 | 1015.0 |
| 20260504220506 | 60 | 122 | 3.0 | 5.0 | 0.00 | 0.00 | 0.00 | 73 | 1015.0 |
| 20260504215506 | 60 | 60 | 10.0 | 0.0 | 0.00 | 0.00 | 0.00 | 73 | 1015.0 |
| 20260504214505 | 60 | 60 | 10.0 | 0.0 | 0.00 | 0.00 | 0.00 | 73 | 1015.0 |
| 20260504213505 | 60 | 60 | 10.0 | 0.0 | 0.00 | 0.00 | 0.00 | 72 | 1014.0 |
| 20260504212504 | 60 | 60 | 10.0 | 0.0 | 0.00 | 0.00 | 0.00 | 72 | 1014.0 |
| 20260504211504 | 60 | 60 | 10.0 | 0.0 | 0.00 | 0.00 | 0.00 | 72 | 1014.0 |
| 20260504210503 | 60 | 60 | 10.0 | 0.0 | 0.00 | 0.00 | 0.00 | 70 | 1014.0 |
| 20260504205502 | 60 | 117 | 3.0 | 4.0 | 0.00 | 0.00 | 0.00 | 68 | 1014.0 |
| 20260504204502 | 60 | 117 | 3.0 | 4.0 | 0.00 | 0.00 | 0.00 | 68 | 1014.0 |
| 20260504203501 | 60 | 117 | 3.0 | 4.0 | 0.00 | 0.00 | 0.00 | 68 | 1014.0 |
| 20260504202501 | 60 | 100 | 3.0 | 4.0 | 0.00 | 0.00 | 0.00 | 68 | 1014.0 |
| 20260504201500 | 60 | 100 | 3.0 | 4.0 | 0.00 | 0.00 | 0.00 | 68 | 1014.0 |
| 20260504200500 | 60 | 100 | 3.0 | 4.0 | 0.00 | 0.00 | 0.00 | 71 | 1014.0 |
| 20260504195459 | 60 | 100 | 3.0 | 4.0 | 0.00 | 0.00 | 0.00 | 71 | 1014.0 |
| 20260504194459 | 60 | 120 | 5.0 | 0.0 | 0.00 | 0.00 | 0.00 | 78 | 1014.0 |
| 20260504193458 | 62 | 100 | 3.0 | 4.0 | 0.00 | 0.00 | 0.00 | 68 | 1014.0 |
| 20260504192457 | 63 | 120 | 3.0 | 6.0 | 0.00 | 0.00 | 0.00 | 69 | 1014.0 |
| 20260504191457 | 63 | 0 | 3.0 | 0.0 | 0.00 | 0.00 | 0.00 | 68 | 1014.0 |
| 20260504190456 | 63 | 0 | 3.0 | 0.0 | 0.00 | 0.00 | 0.00 | 68 | 1014.0 |
| 20260504185456 | 63 | 150 | 11.0 | 0.0 | 0.00 | 0.00 | 0.00 | 66 | 1014.0 |
| 20260504184455 | 63 | 150 | 11.0 | 0.0 | 0.00 | 0.00 | 0.00 | 66 | 1014.0 |
| 20260504183455 | 63 | 150 | 11.0 | 0.0 | 0.00 | 0.00 | 0.00 | 67 | 1014.0 |
| 20260504182454 | 63 | 150 | 11.0 | 0.0 | 0.00 | 0.00 | 0.00 | 67 | 1014.0 |
| 20260504181453 | 63 | 150 | 11.0 | 0.0 | 0.00 | 0.00 | 0.00 | 67 | 1014.0 |
| 20260504180453 | 63 | 120 | 6.0 | 0.0 | 0.00 | 0.00 | 0.00 | 66 | 1014.0 |
| 20260504175452 | 63 | 120 | 6.0 | 0.0 | 0.00 | 0.00 | 0.00 | 67 | 1014.0 |
| 20260504174452 | 63 | 120 | 6.0 | 0.0 | 0.00 | 0.00 | 0.00 | 69 | 1015.0 |
| 20260504173451 | 63 | 120 | 6.0 | 0.0 | 0.00 | 0.00 | 0.00 | 70 | 1015.0 |
| 20260504172450 | 63 | 120 | 6.0 | 0.0 | 0.00 | 0.00 | 0.00 | 71 | 1016.0 |
| 20260504171450 | 63 | 120 | 8.0 | 0.0 | 0.00 | 0.00 | 0.00 | 76 | 1016.0 |
| 20260504170449 | 63 | 120 | 8.0 | 0.0 | 0.00 | 0.00 | 0.00 | 76 | 1016.0 |
| 20260504160446 | 63 | 0 | 4.0 | 0.0 | 0.00 | 0.00 | 0.00 | 87 | 1016.0 |
| 20260504150443 | 63 | 0 | 1.0 | 0.0 | 0.00 | 0.00 | 0.00 | 99 | 1016.0 |
| 20260504140439 | 56 | 0 | 2.0 | 0.0 | 0.00 | 0.00 | 0.00 | 99 | 1017.0 |
| 20260504130436 | 53 | 360 | 3.0 | 0.0 | 0.00 | 0.00 | 0.00 | 99 | 1018.0 |
| 20260504110429 | 53 | 0 | 1.0 | 0.0 | 0.00 | 0.00 | 0.00 | 99 | 1018.0 |
| 20260504100426 | 53 | 0 | 1.0 | 0.0 | 0.00 | 0.00 | 0.00 | 99 | 1018.0 |
| 20260504081420 | 53 | 20 | 4.0 | 0.0 | 0.00 | 0.00 | 0.00 | 99 | 1018.0 |
| 20260504080419 | 53 | 30 | 4.0 | 0.0 | 0.00 | 0.00 | 0.00 | 99 | 1018.0 |
| 20260504050408 | 53 | 280 | 4.0 | 0.0 | 0.00 | 0.00 | 0.00 | 99 | 1020.0 |
| 20260504045408 | 53 | 280 | 4.0 | 0.0 | 0.00 | 0.00 | 0.00 | 99 | 1020.0 |
| 20260504044407 | 53 | 280 | 4.0 | 0.0 | 0.00 | 0.00 | 0.00 | 99 | 1020.0 |
| 20260504043407 | 53 | 280 | 4.0 | 0.0 | 0.00 | 0.00 | 0.00 | 99 | 1020.0 |
| 20260504042406 | 53 | 280 | 4.0 | 0.0 | 0.00 | 0.00 | 0.00 | 99 | 1020.0 |
| 20260504041405 | 53 | 280 | 4.0 | 0.0 | 0.00 | 0.00 | 0.00 | 99 | 1020.0 |
| 20260504040405 | 53 | 340 | 1.0 | 0.0 | 0.00 | 0.00 | 0.00 | 99 | 1020.0 |
| 20260504035404 | 55 | 340 | 1.0 | 0.0 | 0.00 | 0.00 | 0.00 | 10 | 1021.0 |
| 20260504034403 | 55 | 340 | 1.0 | 0.0 | 0.00 | 0.00 | 0.00 | 10 | 1021.0 |
| 20260504033403 | 55 | 340 | 1.0 | 0.0 | 0.00 | 0.00 | 0.00 | 10 | 1020.0 |
| 20260504032402 | 55 | 340 | 1.0 | 0.0 | 0.00 | 0.00 | 0.00 | 10 | 1020.0 |
| 20260504031402 | 55 | 0 | 2.0 | 0.0 | 0.00 | 0.00 | 0.00 | 10 | 1020.0 |
| 20260504030401 | 55 | 0 | 2.0 | 0.0 | 0.00 | 0.00 | 0.00 | 10 | 1020.0 |
| 20260504025400 | 55 | 0 | 2.0 | 0.0 | 0.00 | 0.00 | 0.00 | 10 | 1020.0 |
| 20260504024400 | 55 | 0 | 2.0 | 0.0 | 0.00 | 0.00 | 0.00 | 10 | 1020.0 |
| 20260504023359 | 55 | 0 | 2.0 | 0.0 | 0.00 | 0.00 | 0.00 | 98 | 1020.0 |
| 20260504022359 | 55 | 0 | 2.0 | 0.0 | 0.00 | 0.00 | 0.00 | 98 | 1019.0 |
| 20260504021358 | 55 | 0 | 2.0 | 0.0 | 0.00 | 0.00 | 0.00 | 98 | 1019.0 |
| 20260504020358 | 55 | 0 | 2.0 | 0.0 | 0.00 | 0.00 | 0.00 | 98 | 1019.0 |
| 20260504015357 | 55 | 0 | 2.0 | 0.0 | 0.00 | 0.00 | 0.00 | 98 | 1020.0 |
| 20260504014356 | 55 | 0 | 2.0 | 0.0 | 0.00 | 0.00 | 0.00 | 98 | 1019.0 |
| 20260504013355 | 55 | 0 | 2.0 | 0.0 | 0.00 | 0.00 | 0.00 | 96 | 1019.0 |
| 20260504012355 | 56 | 0 | 2.0 | 0.0 | 0.00 | 0.00 | 0.00 | 95 | 1018.0 |
| 20260504011354 | 56 | 0 | 2.0 | 0.0 | 0.00 | 0.00 | 0.00 | 94 | 1018.0 |
| 20260504010354 | 56 | 250 | 3.0 | 0.0 | 0.00 | 0.00 | 0.00 | 93 | 1018.0 |
| 20260504005353 | 56 | 250 | 3.0 | 0.0 | 0.00 | 0.00 | 0.00 | 93 | 1018.0 |
| 20260504004353 | 56 | 250 | 3.0 | 0.0 | 0.00 | 0.00 | 0.00 | 93 | 1018.0 |
| 20260504003352 | 56 | 250 | 3.0 | 0.0 | 0.00 | 0.00 | 0.00 | 93 | 1018.0 |
| 20260504002352 | 56 | 250 | 3.0 | 0.0 | 0.00 | 0.00 | 0.00 | 93 | 1017.0 |
| 20260504001351 | 56 | 270 | 8.0 | 0.0 | 0.00 | 0.00 | 0.00 | 88 | 1017.0 |
| 20260504000351 | 56 | 270 | 8.0 | 0.0 | 0.00 | 0.00 | 0.00 | 88 | 1017.0 |
| 20260503235350 | 59 | 270 | 8.0 | 0.0 | 0.00 | 0.00 | 0.00 | 94 | 1017.0 |
| 20260503234349 | 59 | 270 | 8.0 | 0.0 | 0.00 | 0.00 | 0.00 | 94 | 1017.0 |
| 20260503233349 | 59 | 270 | 8.0 | 0.0 | 0.00 | 0.00 | 0.00 | 85 | 1016.0 |
| 20260503232348 | 59 | 270 | 8.0 | 0.0 | 0.00 | 0.00 | 0.00 | 85 | 1016.0 |
| 20260503231348 | 59 | 270 | 8.0 | 0.0 | 0.00 | 0.00 | 0.00 | 83 | 1016.0 |
| 20260503230347 | 59 | 290 | 12.0 | 0.0 | 0.00 | 0.00 | 0.00 | 77 | 1016.0 |
| 20260503225346 | 59 | 290 | 12.0 | 0.0 | 0.00 | 0.00 | 0.00 | 77 | 1016.0 |